Location: Byhalia Creek
(34.8270°N, 89.8040°W)
Time: 16:52:56
(UTC+00:00)

Cosmos 2227 Rocket - Pass Details

Date: 22 April 2026
Orbit: 836 x 845 km, 71.0° (Epoch: 9 May)

Event Time Altitude Azimuth Distance (km) Brightness Sun altitude
Rises 09:57:39 0° 170° (S) 3,380 5.2 -16.3°
Reaches altitude 10° 10:00:24 10° 158° (SSE) 2,451 4.6 -15.8°
Maximum altitude 10:05:03 27° 102° (ESE) 1,560 4.2 -14.9°
Drops below altitude 10° 10:09:44 10° 46° (NE) 2,467 5.9 -14.1°
Sets 10:12:30 0° 35° (NE) 3,407 6.5 -13.5°
